Date String (YYYY-MM-DD hh:mm:ss) UTC,Instrument flags,Ambient pressure (hPa),Sample flow (lpm),Bypass flow (lpm),Sample temperature (°C),Ambient temperature (°C),ASC tube jacket temperature (°C),LED temperature (°C),Box temperature (°C),Sample RH (%),Span deviation,Mass concentration (μg/m³),Mass concentration (μg/m³),Mass concentration (μg/m³)
DateTimeUTC,F1_M11,P_M11,Q1_M11,Q2_M11,T1_M11,T2_M11,T3_M11,T4_M11,T5_M11,U1_M11,ZSPAN_M11,X0_M11,X2_M11,X1_M11
2021-12-09 18:00:00,,0815.9,5.00,0.00,24.6,24.0,00.0,33.4,26.5,14.0,0000.0,0012.92,0003.09,0001.50
2021-12-09 18:01:00,,0815.9,4.99,0.00,24.6,24.0,00.0,33.4,26.5,14.0,0000.0,0012.31,0003.01,0001.49
2021-12-09 18:02:00,,0815.9,5.01,0.00,24.7,24.0,00.0,33.4,26.5,13.9,0000.0,0012.22,0002.96,0001.46
2021-12-09 18:03:00,,0815.8,5.00,0.00,24.7,24.0,00.0,33.5,26.6,13.9,0000.0,0011.79,0002.98,0001.45
2021-12-09 18:04:00,,0815.9,4.99,0.00,24.7,24.0,00.0,33.5,26.6,14.0,0000.0,0011.85,0003.01,0001.46
2021-12-09 18:05:00,,0815.8,5.01,0.00,24.7,24.0,00.0,33.5,26.6,13.9,0000.0,0012.20,0003.02,0001.47
2021-12-09 18:06:00,,0815.8,5.00,0.00,24.7,24.0,00.0,33.5,26.6,13.8,0000.0,0011.45,0003.00,0001.48
2021-12-09 18:07:00,,0815.8,5.01,0.00,24.7,24.1,00.0,33.5,26.6,13.8,0000.0,0011.58,0003.08,0001.50
2021-12-09 18:08:00,,0815.8,5.00,0.00,24.8,24.1,00.0,33.6,26.7,13.8,0000.0,0011.75,0003.13,0001.52
2021-12-09 18:09:00,,0815.7,5.01,0.00,24.8,24.1,00.0,33.6,26.7,13.9,0000.0,0011.15,0003.18,0001.53
2021-12-09 18:10:00,,0815.8,5.01,0.00,24.8,24.2,00.0,33.6,26.7,13.8,0000.0,0011.39,0003.22,0001.54
2021-12-09 18:11:00,,0815.7,4.98,0.00,24.9,24.2,00.0,33.6,26.8,13.7,0000.0,0012.02,0003.20,0001.55
2021-12-09 18:12:00,,0815.6,5.01,0.00,24.9,24.2,00.0,33.7,26.8,13.7,0000.0,0012.20,0003.20,0001.55
2021-12-09 18:13:00,,0816.1,4.99,0.00,24.9,24.2,00.0,33.7,26.8,13.7,0000.0,0013.11,0003.24,0001.59
2021-12-09 18:14:00,,0816.1,4.99,0.00,24.9,24.2,00.0,33.7,26.8,13.7,0000.0,0014.84,0003.26,0001.60
2021-12-09 18:15:00,,0815.8,5.00,0.00,25.0,24.3,00.0,33.7,26.8,13.7,0000.0,0014.67,0003.28,0001.61
2021-12-09 18:16:00,,0815.5,5.01,0.00,25.0,24.3,00.0,33.8,26.9,13.8,0000.0,0014.39,0003.32,0001.63
2021-12-09 18:17:00,,0815.5,4.99,0.00,25.0,24.3,00.0,33.8,26.9,13.8,0000.0,0014.22,0003.35,0001.65
2021-12-09 18:18:00,,0815.4,5.01,0.00,25.0,24.4,00.0,33.8,26.9,13.8,0000.0,0013.83,0003.37,0001.66
2021-12-09 18:19:00,,0815.5,5.01,0.00,25.0,24.4,00.0,33.8,26.9,13.7,0000.0,0014.79,0003.40,0001.68
2021-12-09 18:20:00,,0816.0,4.99,0.00,25.1,24.4,00.0,33.9,26.9,13.6,0000.0,0014.77,0003.41,0001.70
2021-12-09 18:21:00,,0816.1,5.00,0.00,25.1,24.4,00.0,33.9,27.0,13.6,0000.0,0014.57,0003.41,0001.72
2021-12-09 18:22:00,,0816.0,4.99,0.00,25.1,24.4,00.0,33.9,27.0,13.6,0000.0,0015.41,0003.40,0001.76
2021-12-09 18:23:00,,0816.0,5.02,0.00,25.1,24.5,00.0,33.9,27.1,13.6,0000.0,0015.46,0003.43,0001.77
2021-12-09 18:24:00,,0815.7,4.99,0.00,25.2,24.5,00.0,34.0,27.1,13.7,0000.0,0014.52,0003.46,0001.79
2021-12-09 18:25:00,,0815.4,5.00,0.00,25.2,24.5,00.0,34.0,27.1,13.5,0000.0,0012.71,0003.53,0001.82
2021-12-09 18:26:00,,0815.5,5.01,0.00,25.2,24.6,00.0,34.0,27.1,13.5,0000.0,0013.11,0003.62,0001.85
2021-12-09 18:27:00,,0815.4,5.00,0.00,25.3,24.6,00.0,34.0,27.2,13.5,0000.0,0014.13,0003.64,0001.88
2021-12-09 18:28:00,,0815.5,5.01,0.00,25.3,24.6,00.0,34.1,27.2,13.5,0000.0,0015.00,0003.66,0001.91
2021-12-09 18:29:00,,0815.4,4.99,0.00,25.3,24.6,00.0,34.1,27.2,13.5,0000.0,0014.89,0003.65,0001.93
2021-12-09 18:30:00,,0815.4,5.00,0.00,25.3,24.6,00.0,34.1,27.2,13.5,0000.0,0014.60,0003.65,0001.93
2021-12-09 18:31:00,,0815.4,5.00,0.00,25.3,24.6,00.0,34.1,27.2,13.5,0000.0,0015.87,0003.63,0001.94
2021-12-09 18:32:00,,0815.4,5.01,0.00,25.3,24.7,00.0,34.2,27.2,13.5,0000.0,0015.90,0003.65,0001.96
2021-12-09 18:33:00,,0815.3,4.98,0.00,25.4,24.7,00.0,34.2,27.3,13.5,0000.0,0013.95,0003.62,0001.96
2021-12-09 18:34:00,,0815.3,5.01,0.00,25.4,24.7,00.0,34.2,27.3,13.5,0000.0,0013.91,0003.61,0001.97
2021-12-09 18:35:00,,0815.3,5.00,0.00,25.4,24.7,00.0,34.2,27.3,13.4,0000.0,0014.15,0003.62,0001.98
2021-12-09 18:36:00,,0815.3,5.00,0.00,25.4,24.7,00.0,34.2,27.3,13.4,0000.0,0014.64,0003.56,0001.97
2021-12-09 18:37:00,,0815.3,5.00,0.00,25.5,24.7,00.0,34.3,27.4,13.4,0000.0,0014.73,0003.49,0001.96
2021-12-09 18:38:00,,0815.2,4.99,0.00,25.5,24.7,00.0,34.3,27.4,13.4,0000.0,0013.60,0003.44,0001.95
2021-12-09 18:39:00,,0815.4,5.00,0.00,25.5,24.8,00.0,34.3,27.4,13.4,0000.0,0013.79,0003.46,0001.96
2021-12-09 18:40:00,,0815.5,5.01,0.00,25.5,24.8,00.0,34.3,27.4,13.4,0000.0,0013.76,0003.47,0001.96
2021-12-09 18:41:00,,0815.1,4.99,0.00,25.5,24.8,00.0,34.3,27.4,13.4,0000.0,0013.72,0003.47,0001.96
2021-12-09 18:42:00,,0815.1,5.01,0.00,25.6,24.8,00.0,34.4,27.4,13.4,0000.0,0012.38,0003.52,0001.97
2021-12-09 18:43:00,,0815.1,5.01,0.00,25.6,24.8,00.0,34.4,27.4,13.3,0000.0,0012.40,0003.54,0001.96
2021-12-09 18:44:00,,0815.2,4.98,0.00,25.6,24.9,00.0,34.4,27.5,13.4,0000.0,0014.02,0003.57,0001.97
2021-12-09 18:45:00,,0815.2,4.99,0.00,25.6,24.9,00.0,34.4,27.5,13.4,0000.0,0014.60,0003.61,0001.98
2021-12-09 18:46:00,,0815.1,5.01,0.00,25.6,24.9,00.0,34.4,27.5,13.4,0000.0,0014.27,0003.63,0001.99
2021-12-09 18:47:00,,0815.2,4.99,0.00,25.6,24.9,00.0,34.5,27.6,13.4,0000.0,0013.53,0003.60,0002.00
2021-12-09 18:48:00,,0815.1,5.00,0.00,25.7,24.9,00.0,34.5,27.6,13.3,0000.0,0012.83,0003.59,0002.01
2021-12-09 18:49:00,,0815.1,5.00,0.00,25.7,25.0,00.0,34.5,27.6,13.3,0000.0,0012.81,0003.57,0002.02
2021-12-09 18:50:00,,0815.0,4.99,0.00,25.7,25.0,00.0,34.5,27.6,13.3,0000.0,0011.87,0003.54,0002.03
2021-12-09 18:51:00,,0814.9,5.00,0.00,25.7,25.0,00.0,34.5,27.6,13.3,0000.0,0011.64,0003.53,0002.03
2021-12-09 18:52:00,,0814.9,5.00,0.00,25.7,25.0,00.0,34.6,27.6,13.2,0000.0,0011.06,0003.49,0002.03
2021-12-09 18:53:00,,0814.9,5.00,0.00,25.7,25.0,00.0,34.6,27.6,13.2,0000.0,0011.09,0003.45,0002.03
2021-12-09 18:54:00,,0814.9,5.00,0.00,25.7,25.0,00.0,34.6,27.7,13.2,0000.0,0011.53,0003.43,0002.03
2021-12-09 18:55:00,,0814.9,5.01,0.00,25.8,25.0,00.0,34.6,27.7,13.2,0000.0,0010.66,0003.42,0002.03
2021-12-09 18:56:00,,0815.1,4.99,0.00,25.8,25.0,00.0,34.6,27.7,13.2,0000.0,0009.37,0003.40,0002.04
2021-12-09 18:57:00,,0815.3,5.01,0.00,25.8,25.0,00.0,34.7,27.7,13.2,0000.0,0009.76,0003.33,0002.03
2021-12-09 18:58:00,,0814.9,5.00,0.00,25.8,25.1,00.0,34.7,27.7,13.2,0000.0,0010.05,0003.35,0002.03
2021-12-09 18:59:00,,0814.9,4.99,0.00,25.8,25.1,00.0,34.7,27.7,13.2,0000.0,0010.78,0003.38,0002.04
